Index of /20260415/WXO-DD/model_gdps/15km/12/207
Name Last modified Size Description
Parent Directory -
20260415T12Z_MSC_GDPS_AirTemp_AGL-120m_LatLon0.15_PT207H.grib2 2026-04-15 16:35 900K
20260415T12Z_MSC_GDPS_AirTemp_AGL-2m_LatLon0.15_PT207H.grib2 2026-04-15 16:35 1.2M
20260415T12Z_MSC_GDPS_AirTemp_AGL-40m_LatLon0.15_PT207H.grib2 2026-04-15 16:35 919K
20260415T12Z_MSC_GDPS_AirTemp_AGL-80m_LatLon0.15_PT207H.grib2 2026-04-15 16:35 908K
20260415T12Z_MSC_GDPS_AirTemp_IsbL-0001_LatLon0.15_PT207H.grib2 2026-04-15 16:35 712K
20260415T12Z_MSC_GDPS_AirTemp_IsbL-0005_LatLon0.15_PT207H.grib2 2026-04-15 16:35 743K
20260415T12Z_MSC_GDPS_AirTemp_IsbL-0500_LatLon0.15_PT207H.grib2 2026-04-15 16:35 1.0M
20260415T12Z_MSC_GDPS_AirTemp_IsbL-0700_LatLon0.15_PT207H.grib2 2026-04-15 16:35 949K
20260415T12Z_MSC_GDPS_AirTemp_IsbL-0850_LatLon0.15_PT207H.grib2 2026-04-15 16:35 1.1M
20260415T12Z_MSC_GDPS_AirTemp_IsbL-0925_LatLon0.15_PT207H.grib2 2026-04-15 16:35 1.1M
20260415T12Z_MSC_GDPS_AirTemp_IsbL-1000_LatLon0.15_PT207H.grib2 2026-04-15 16:35 1.1M
20260415T12Z_MSC_GDPS_Albedo_Sfc_LatLon0.15_PT207H.grib2 2026-04-15 16:35 247K
20260415T12Z_MSC_GDPS_ConvectivePrecip-Accum_Sfc_LatLon0.15_PT207H.grib2 2026-04-15 16:35 3.9M
20260415T12Z_MSC_GDPS_DewPointDepression_AGL-2m_LatLon0.15_PT207H.grib2 2026-04-15 16:35 753K
20260415T12Z_MSC_GDPS_DewPointDepression_IsbL-0500_LatLon0.15_PT207H.grib2 2026-04-15 16:35 1.0M
20260415T12Z_MSC_GDPS_DewPointDepression_IsbL-0700_LatLon0.15_PT207H.grib2 2026-04-15 16:35 1.1M
20260415T12Z_MSC_GDPS_DewPointDepression_IsbL-0850_LatLon0.15_PT207H.grib2 2026-04-15 16:35 1.2M
20260415T12Z_MSC_GDPS_DewPointDepression_IsbL-0925_LatLon0.15_PT207H.grib2 2026-04-15 16:35 1.0M
20260415T12Z_MSC_GDPS_DewPointDepression_IsbL-1000_LatLon0.15_PT207H.grib2 2026-04-15 16:35 962K
20260415T12Z_MSC_GDPS_DewPoint_AGL-2m_LatLon0.15_PT207H.grib2 2026-04-15 16:35 600K
20260415T12Z_MSC_GDPS_DownwardLongwaveRadiationFlux-Accum_Sfc_LatLon0.15_PT207H.grib2 2026-04-15 16:35 715K
20260415T12Z_MSC_GDPS_DownwardShortwaveRadiationFlux-Accum_Sfc_LatLon0.15_PT207H.grib2 2026-04-15 16:35 884K
20260415T12Z_MSC_GDPS_FreezingRain-Accum_Sfc_LatLon0.15_PT207H.grib2 2026-04-15 16:35 437K
20260415T12Z_MSC_GDPS_GeopotentialHeight_IsbL-0001_LatLon0.15_PT207H.grib2 2026-04-15 16:35 404K
20260415T12Z_MSC_GDPS_GeopotentialHeight_IsbL-0005_LatLon0.15_PT207H.grib2 2026-04-15 16:35 501K
20260415T12Z_MSC_GDPS_GeopotentialHeight_IsbL-0500_LatLon0.15_PT207H.grib2 2026-04-15 16:35 529K
20260415T12Z_MSC_GDPS_GeopotentialHeight_IsbL-0700_LatLon0.15_PT207H.grib2 2026-04-15 16:35 685K
20260415T12Z_MSC_GDPS_GeopotentialHeight_IsbL-0850_LatLon0.15_PT207H.grib2 2026-04-15 16:35 708K
20260415T12Z_MSC_GDPS_GeopotentialHeight_IsbL-0925_LatLon0.15_PT207H.grib2 2026-04-15 16:35 728K
20260415T12Z_MSC_GDPS_GeopotentialHeight_IsbL-1000_LatLon0.15_PT207H.grib2 2026-04-15 16:35 787K
20260415T12Z_MSC_GDPS_IcePellets-Accum_Sfc_LatLon0.15_PT207H.grib2 2026-04-15 16:35 231K
20260415T12Z_MSC_GDPS_LatentHeatNetFlux_Sfc_LatLon0.15_PT207H.grib2 2026-04-15 16:35 675K
20260415T12Z_MSC_GDPS_NetLongwaveRadiationFlux-Accum_Sfc_LatLon0.15_PT207H.grib2 2026-04-15 16:35 894K
20260415T12Z_MSC_GDPS_NetShortwaveRadiationFlux-Accum_Sfc_LatLon0.15_PT207H.grib2 2026-04-15 16:35 889K
20260415T12Z_MSC_GDPS_O3MixingRatio_LatLon0.15_PT207H.grib2 2026-04-15 16:50 2.2M
20260415T12Z_MSC_GDPS_O3_EAtm_LatLon0.15_PT207H.grib2 2026-04-15 16:50 2.5M
20260415T12Z_MSC_GDPS_PlanetaryBoundaryLayerHeight_Sfc_LatLon0.15_PT207H.grib2 2026-04-15 16:35 2.4M
20260415T12Z_MSC_GDPS_Precip-Accum_Sfc_LatLon0.15_PT207H.grib2 2026-04-15 16:35 5.4M
20260415T12Z_MSC_GDPS_PrecipRate_Sfc_LatLon0.15_PT207H.grib2 2026-04-15 16:35 3.0M
20260415T12Z_MSC_GDPS_Pressure_MSL_LatLon0.15_PT207H.grib2 2026-04-15 16:35 718K
20260415T12Z_MSC_GDPS_Pressure_Sfc_LatLon0.15_PT207H.grib2 2026-04-15 16:35 1.1M
20260415T12Z_MSC_GDPS_RadiativeTemp_Sfc_LatLon0.15_PT207H.grib2 2026-04-15 16:35 660K
20260415T12Z_MSC_GDPS_Rain-Accum_Sfc_LatLon0.15_PT207H.grib2 2026-04-15 16:35 4.2M
20260415T12Z_MSC_GDPS_RelativeHumidity_AGL-2m_LatLon0.15_PT207H.grib2 2026-04-15 16:35 1.0M
20260415T12Z_MSC_GDPS_Runoff-Accum_Sfc_LatLon0.15_PT207H.grib2 2026-04-15 16:35 156K
20260415T12Z_MSC_GDPS_SensibleHeatNetFlux_Sfc_LatLon0.15_PT207H.grib2 2026-04-15 16:35 461K
20260415T12Z_MSC_GDPS_Snow-Accum_Sfc_LatLon0.15_PT207H.grib2 2026-04-15 16:35 2.2M
20260415T12Z_MSC_GDPS_SnowDepth_Sfc_LatLon0.15_PT207H.grib2 2026-04-15 16:35 1.8M
20260415T12Z_MSC_GDPS_SoilTemp_DBS-0to10cm_LatLon0.15_PT207H.grib2 2026-04-15 16:35 511K
20260415T12Z_MSC_GDPS_SoilTemp_Sfc_LatLon0.15_PT207H.grib2 2026-04-15 16:35 582K
20260415T12Z_MSC_GDPS_SoilVolumetricWaterContent_DBS-0to10cm_LatLon0.15_PT207H.grib2 2026-04-15 16:35 559K
20260415T12Z_MSC_GDPS_SoilVolumetricWaterContent_DBS-0to1cm_LatLon0.15_PT207H.grib2 2026-04-15 16:35 655K
20260415T12Z_MSC_GDPS_SpecificHumidity_AGL-120m_LatLon0.15_PT207H.grib2 2026-04-15 16:35 1.1M
20260415T12Z_MSC_GDPS_SpecificHumidity_AGL-2m_LatLon0.15_PT207H.grib2 2026-04-15 16:35 1.2M
20260415T12Z_MSC_GDPS_SpecificHumidity_AGL-40m_LatLon0.15_PT207H.grib2 2026-04-15 16:35 1.1M
20260415T12Z_MSC_GDPS_SpecificHumidity_AGL-80m_LatLon0.15_PT207H.grib2 2026-04-15 16:35 1.1M
20260415T12Z_MSC_GDPS_SpecificHumidity_IsbL-0001_LatLon0.15_PT207H.grib2 2026-04-15 16:35 1.0M
20260415T12Z_MSC_GDPS_SpecificHumidity_IsbL-0005_LatLon0.15_PT207H.grib2 2026-04-15 16:35 1.0M
20260415T12Z_MSC_GDPS_SpecificHumidity_IsbL-0500_LatLon0.15_PT207H.grib2 2026-04-15 16:35 1.5M
20260415T12Z_MSC_GDPS_SpecificHumidity_IsbL-0700_LatLon0.15_PT207H.grib2 2026-04-15 16:35 1.6M
20260415T12Z_MSC_GDPS_SpecificHumidity_IsbL-0850_LatLon0.15_PT207H.grib2 2026-04-15 16:35 1.9M
20260415T12Z_MSC_GDPS_SpecificHumidity_IsbL-0925_LatLon0.15_PT207H.grib2 2026-04-15 16:35 1.9M
20260415T12Z_MSC_GDPS_SpecificHumidity_IsbL-1000_LatLon0.15_PT207H.grib2 2026-04-15 16:35 1.5M
20260415T12Z_MSC_GDPS_SpecificHumidity_Sfc_LatLon0.15_PT207H.grib2 2026-04-15 16:35 633K
20260415T12Z_MSC_GDPS_Thickness_IsbL-0850to0700_LatLon0.15_PT207H.grib2 2026-04-15 16:35 466K
20260415T12Z_MSC_GDPS_Thickness_IsbL-1000to0500_LatLon0.15_PT207H.grib2 2026-04-15 16:35 332K
20260415T12Z_MSC_GDPS_Thickness_IsbL-1000to0850_LatLon0.15_PT207H.grib2 2026-04-15 16:35 486K
20260415T12Z_MSC_GDPS_TotalCloudCover_Sfc_LatLon0.15_PT207H.grib2 2026-04-15 16:35 822K
20260415T12Z_MSC_GDPS_UVIndex-ClearSky_Sfc_LatLon0.15_PT207H.grib2 2026-04-15 16:50 1.0M
20260415T12Z_MSC_GDPS_UVIndex_Sfc_LatLon0.15_PT207H.grib2 2026-04-15 16:50 1.5M
20260415T12Z_MSC_GDPS_UpwardLongwaveRadiationFlux_NTAtm_LatLon0.15_PT207H.grib2 2026-04-15 16:35 1.1M
20260415T12Z_MSC_GDPS_VerticalVelocity_IsbL-0500_LatLon0.15_PT207H.grib2 2026-04-15 16:35 1.0M
20260415T12Z_MSC_GDPS_VerticalVelocity_IsbL-0700_LatLon0.15_PT207H.grib2 2026-04-15 16:35 1.4M
20260415T12Z_MSC_GDPS_VerticalVelocity_IsbL-0850_LatLon0.15_PT207H.grib2 2026-04-15 16:35 1.6M
20260415T12Z_MSC_GDPS_WindDir_AGL-10m_LatLon0.15_PT207H.grib2 2026-04-15 16:35 1.3M
20260415T12Z_MSC_GDPS_WindDir_AGL-120m_LatLon0.15_PT207H.grib2 2026-04-15 16:35 1.3M
20260415T12Z_MSC_GDPS_WindDir_AGL-40m_LatLon0.15_PT207H.grib2 2026-04-15 16:35 1.4M
20260415T12Z_MSC_GDPS_WindDir_AGL-80m_LatLon0.15_PT207H.grib2 2026-04-15 16:35 1.4M
20260415T12Z_MSC_GDPS_WindDir_IsbL-0001_LatLon0.15_PT207H.grib2 2026-04-15 16:35 651K
20260415T12Z_MSC_GDPS_WindDir_IsbL-0005_LatLon0.15_PT207H.grib2 2026-04-15 16:35 792K
20260415T12Z_MSC_GDPS_WindDir_IsbL-0500_LatLon0.15_PT207H.grib2 2026-04-15 16:35 1.3M
20260415T12Z_MSC_GDPS_WindDir_IsbL-0700_LatLon0.15_PT207H.grib2 2026-04-15 16:35 1.6M
20260415T12Z_MSC_GDPS_WindDir_IsbL-0850_LatLon0.15_PT207H.grib2 2026-04-15 16:35 1.9M
20260415T12Z_MSC_GDPS_WindDir_IsbL-0925_LatLon0.15_PT207H.grib2 2026-04-15 16:35 2.0M
20260415T12Z_MSC_GDPS_WindDir_IsbL-1000_LatLon0.15_PT207H.grib2 2026-04-15 16:35 2.1M
20260415T12Z_MSC_GDPS_WindGust-Max_AGL-10m_LatLon0.15_PT207H.grib2 2026-04-15 16:35 2.3M
20260415T12Z_MSC_GDPS_WindGust-Min_AGL-10m_LatLon0.15_PT207H.grib2 2026-04-15 16:35 2.2M
20260415T12Z_MSC_GDPS_WindGust_AGL-10m_LatLon0.15_PT207H.grib2 2026-04-15 16:35 2.2M
20260415T12Z_MSC_GDPS_WindSpeed_AGL-10m_LatLon0.15_PT207H.grib2 2026-04-15 16:35 1.1M
20260415T12Z_MSC_GDPS_WindSpeed_AGL-120m_LatLon0.15_PT207H.grib2 2026-04-15 16:35 1.2M
20260415T12Z_MSC_GDPS_WindSpeed_AGL-40m_LatLon0.15_PT207H.grib2 2026-04-15 16:35 1.2M
20260415T12Z_MSC_GDPS_WindSpeed_AGL-80m_LatLon0.15_PT207H.grib2 2026-04-15 16:35 1.2M
20260415T12Z_MSC_GDPS_WindSpeed_IsbL-0001_LatLon0.15_PT207H.grib2 2026-04-15 16:35 633K
20260415T12Z_MSC_GDPS_WindSpeed_IsbL-0005_LatLon0.15_PT207H.grib2 2026-04-15 16:35 681K
20260415T12Z_MSC_GDPS_WindSpeed_IsbL-0500_LatLon0.15_PT207H.grib2 2026-04-15 16:35 1.1M
20260415T12Z_MSC_GDPS_WindSpeed_IsbL-0700_LatLon0.15_PT207H.grib2 2026-04-15 16:35 1.5M
20260415T12Z_MSC_GDPS_WindSpeed_IsbL-0850_LatLon0.15_PT207H.grib2 2026-04-15 16:35 1.8M
20260415T12Z_MSC_GDPS_WindSpeed_IsbL-0925_LatLon0.15_PT207H.grib2 2026-04-15 16:35 1.9M
20260415T12Z_MSC_GDPS_WindSpeed_IsbL-1000_LatLon0.15_PT207H.grib2 2026-04-15 16:35 1.8M
20260415T12Z_MSC_GDPS_WindU_AGL-10m_LatLon0.15_PT207H.grib2 2026-04-15 16:35 1.6M
20260415T12Z_MSC_GDPS_WindU_AGL-120m_LatLon0.15_PT207H.grib2 2026-04-15 16:35 1.0M
20260415T12Z_MSC_GDPS_WindU_AGL-40m_LatLon0.15_PT207H.grib2 2026-04-15 16:35 1.2M
20260415T12Z_MSC_GDPS_WindU_AGL-80m_LatLon0.15_PT207H.grib2 2026-04-15 16:35 972K
20260415T12Z_MSC_GDPS_WindU_IsbL-0001_LatLon0.15_PT207H.grib2 2026-04-15 16:35 638K
20260415T12Z_MSC_GDPS_WindU_IsbL-0005_LatLon0.15_PT207H.grib2 2026-04-15 16:35 680K
20260415T12Z_MSC_GDPS_WindU_IsbL-0500_LatLon0.15_PT207H.grib2 2026-04-15 16:35 1.1M
20260415T12Z_MSC_GDPS_WindU_IsbL-0700_LatLon0.15_PT207H.grib2 2026-04-15 16:35 1.2M
20260415T12Z_MSC_GDPS_WindU_IsbL-0850_LatLon0.15_PT207H.grib2 2026-04-15 16:35 1.4M
20260415T12Z_MSC_GDPS_WindU_IsbL-0925_LatLon0.15_PT207H.grib2 2026-04-15 16:35 1.4M
20260415T12Z_MSC_GDPS_WindU_IsbL-1000_LatLon0.15_PT207H.grib2 2026-04-15 16:35 1.7M
20260415T12Z_MSC_GDPS_WindV_AGL-10m_LatLon0.15_PT207H.grib2 2026-04-15 16:35 1.6M
20260415T12Z_MSC_GDPS_WindV_AGL-120m_LatLon0.15_PT207H.grib2 2026-04-15 16:35 1.0M
20260415T12Z_MSC_GDPS_WindV_AGL-40m_LatLon0.15_PT207H.grib2 2026-04-15 16:35 968K
20260415T12Z_MSC_GDPS_WindV_AGL-80m_LatLon0.15_PT207H.grib2 2026-04-15 16:35 1.0M
20260415T12Z_MSC_GDPS_WindV_IsbL-0001_LatLon0.15_PT207H.grib2 2026-04-15 16:35 697K
20260415T12Z_MSC_GDPS_WindV_IsbL-0005_LatLon0.15_PT207H.grib2 2026-04-15 16:35 747K
20260415T12Z_MSC_GDPS_WindV_IsbL-0500_LatLon0.15_PT207H.grib2 2026-04-15 16:35 1.1M
20260415T12Z_MSC_GDPS_WindV_IsbL-0700_LatLon0.15_PT207H.grib2 2026-04-15 16:35 1.2M
20260415T12Z_MSC_GDPS_WindV_IsbL-0850_LatLon0.15_PT207H.grib2 2026-04-15 16:35 1.4M
20260415T12Z_MSC_GDPS_WindV_IsbL-0925_LatLon0.15_PT207H.grib2 2026-04-15 16:35 1.5M
20260415T12Z_MSC_GDPS_WindV_IsbL-1000_LatLon0.15_PT207H.grib2 2026-04-15 16:35 1.7M